Flag for Myanmar Weather past 2 weeks in Mandalay, Myanmar

Now
73 °F

Passing clouds.


Feels Like: 73 °F
Forecast: 69 / 91 °F
Wind: 3 mph from Northeast

Location: Chiang Mai Airport

Current Time: Oct 23, 2014 at 6:02:49 AM

Latest Report: Oct 23, 2014 at 5:30 AM


Visibility: N/A

Pressure: 29.98 "Hg

Humidity: 83%

Dew point: 68 °F

Location of MandalayLocation

Historic Weather in Mandalay — Graph

°F

Mandalay temperature yesterday

Maximum temperature yesterday: 81 °F (at 9:30 AM)
Minimum temperature yesterday: 72 °F (at 12:00 PM)
Average temperature yesterday: 76 °F

Past Weeks' High & Low Weather Summary

 TemperatureHumidityPressure
High91 °F (Oct 11, 2:00 PM)100% (Oct 21, 11:00 AM)30.12 "Hg (Oct 21, 11:00 AM)
Low72 °F (Oct 8, 4:30 AM)36% (Oct 11, 3:00 PM)29.80 "Hg (Oct 10, 3:00 PM)
Average80 °F69%29.98 "Hg
* Reported Oct 8 4:30 AM — Oct 23 5:00 AM, Mandalay, Weather by CustomWeather, © 2014

Note: Actual official high and low records may vary slightly from our data, if they occured in-between our weather recording intervals... More about our weather records

Advertising

Mandalay weather history for previous 24 hours

 ConditionsComfort  
Time TempWeatherWind HumidityBarometerVisibility
5:00 AM
Oct 23
73 °FPassing clouds.3 mph83%29.98 "HgN/A
4:30 AM73 °FPassing clouds.5 mph83%29.98 "HgN/A
4:00 AM73 °FPassing clouds.3 mph83%29.98 "HgN/A
3:30 AM73 °FPassing clouds.3 mph83%29.98 "HgN/A
2:00 AM73 °FPassing clouds.No wind89%30.01 "HgN/A
1:30 AM73 °FPassing clouds.No wind89%30.01 "HgN/A
12:30 AM73 °FPassing clouds.3 mph89%30.04 "HgN/A
12:00 AM73 °FPassing clouds.3 mph89%30.04 "HgN/A
11:30 PM
Oct 22
73 °FPassing clouds.2 mph89%30.04 "HgN/A
11:00 PM73 °FPassing clouds.3 mph89%30.07 "HgN/A
10:30 PM75 °FPassing clouds.3 mph83%30.07 "HgN/A
10:00 PM75 °FPassing clouds.3 mph83%30.07 "HgN/A
9:30 PM75 °FPassing clouds.No wind83%30.07 "HgN/A
9:00 PM75 °FPassing clouds.7 mph78%30.04 "HgN/A
8:30 PM75 °FPassing clouds.7 mph78%30.07 "HgN/A
8:00 PM75 °FPassing clouds.9 mph78%30.04 "HgN/A
7:30 PM75 °FPassing clouds.10 mph78%30.04 "HgN/A
7:00 PM75 °FPassing clouds.3 mph83%30.01 "HgN/A
6:30 PM75 °FPassing clouds.3 mph83%30.01 "HgN/A
6:00 PM77 °FPassing clouds.3 mph79%30.01 "HgN/A
5:30 PM77 °FPassing clouds.3 mph79%29.98 "HgN/A
5:00 PM77 °FPartly sunny.5 mph79%29.98 "HgN/A
4:30 PM77 °FPartly sunny.5 mph79%29.98 "HgN/A
4:00 PM77 °FPartly sunny.6 mph79%29.98 "HgN/A
3:30 PM79 °FPartly sunny.6 mph74%29.98 "HgN/A
3:00 PM79 °FPartly sunny.6 mph74%29.98 "HgN/A
2:30 PM79 °FPartly sunny.7 mph74%29.98 "HgN/A
2:00 PM79 °FPartly sunny.7 mph70%29.98 "HgN/A
1:30 PM79 °FPartly sunny.3 mph70%30.01 "HgN/A
1:00 PM73 °FLight rain. Partly sunny.5 mph89%30.01 "HgN/A
12:30 PM73 °FLight rain. Mostly cloudy.7 mph89%30.04 "HgN/A
12:00 PM72 °FStrong thunderstorms. Mostly cloudy.10 mph94%30.07 "Hg2 mi
11:30 AM73 °FRain. Cloudy.12 mph83%30.07 "HgN/A
11:00 AM75 °FPartly sunny.15 mph78%30.09 "HgN/A
10:30 AM81 °FPartly sunny.9 mph70%30.09 "HgN/A
10:00 AM81 °FPartly sunny.3 mph70%30.09 "HgN/A
9:30 AM81 °FPartly sunny.3 mph70%30.09 "HgN/A
9:00 AM79 °FLight rain. Partly sunny.3 mph79%30.09 "HgN/A
8:30 AM79 °FLight rain. Partly sunny.3 mph74%30.09 "HgN/A
8:00 AM79 °FLight rain. Partly sunny.6 mph74%30.07 "HgN/A
7:00 AM77 °FBroken clouds.5 mph83%30.04 "HgN/A
6:30 AM77 °FBroken clouds.3 mph83%30.04 "HgN/A
6:00 AM75 °FBroken clouds.2 mph89%30.04 "HgN/A
Weather by CustomWeather, © 2014

See weather overviewHow to use our weather pages